Weather History for Russellville, AR

Change the Weather History Date:

Wednesday, March 19, 2014

  Actual Average (KHOT) Record (KHOT)
Temperature  
Mean Temperature 51 °F -  
Max Temperature 64 °F 68 °F 83 °F (1982)
Min Temperature 37 °F 42 °F 20 °F (1965)
Degree Days  
Heating Degree Days 14    
Growing Degree Days 1 (Base 50)    
Moisture  
Dew Point 35 °F    
Average Humidity 56    
Maximum Humidity 86    
Minimum Humidity 35    
Precipitation  
Precipitation 0.00 in - - ()
Sea Level Pressure  
Sea Level Pressure 30.03 in    
Wind  
Wind Speed 9 mph (West)    
Max Wind Speed 16 mph    
Max Gust Speed 25 mph    
Visibility 10 miles    
Events      
Averages and records for this station are not official NWS values.
T = Trace of Precipitation, MM = Missing Value Source: NWS Daily Summary

Daily Weather History Graph

Daily Weather History Graph

Search for Another Location

Airport:

Trip Planner

Search our weather history database for the weather conditions in past years. The results will help you decide how hot, cold, wet, or windy it might be!

Date:

Astronomy

Mar. 19, 2014 Rise Set
Actual Time 7:17 AM CDT 7:23 PM CDT
Civil Twilight 6:52 AM CDT 7:48 PM CDT
Nautical Twilight 6:22 AM CDT 8:18 PM CDT
Astronomical Twilight 5:52 AM CDT 8:48 PM CDT
Moon 10:34 PM CDT (3/19) 8:50 AM CDT (3/19)
Length of Visible Light 12h 56m
Length of Day
12h 05m
Waning Gibbous, 91% of the Moon is Illuminated
Mar 19
Waning Gibbous
Mar 23
Last Quarter
Mar 30
New
Apr 7
First Quarter
Apr 15
Full

Hourly Weather History & Observations

Time (CDT) Temp. Windchill Dew Point Humidity Pressure Visibility Wind Dir Wind Speed Gust Speed Precip Events Conditions
12:53 AM 62.1 °F - 48.9 °F 62% 29.74 in 10.0 mi SSW 3.5 mph - 0.00 in   Mostly Cloudy
1:53 AM 63.0 °F - 39.0 °F 41% 29.77 in 10.0 mi West 5.8 mph 21.9 mph N/A   Mostly Cloudy
2:53 AM 57.9 °F - 37.0 °F 46% 29.82 in 10.0 mi West 12.7 mph 23.0 mph N/A   Mostly Cloudy
3:53 AM 53.1 °F - 35.1 °F 50% 29.84 in 10.0 mi West 16.1 mph 23.0 mph N/A   Clear
4:53 AM 48.9 °F - 32.0 °F 52% 29.88 in 10.0 mi West 10.4 mph 17.3 mph N/A   Clear
5:53 AM 46.0 °F 40.2 °F 30.9 °F 56% 29.93 in 10.0 mi West 12.7 mph 23.0 mph N/A   Clear
6:53 AM 44.1 °F 37.7 °F 30.9 °F 60% 29.97 in 10.0 mi West 12.7 mph 18.4 mph N/A   Clear
7:53 AM 44.1 °F 37.4 °F 30.9 °F 60% 30.00 in 10.0 mi West 13.8 mph 25.3 mph N/A   Clear
8:53 AM 46.0 °F 41.4 °F 32.0 °F 58% 30.03 in 10.0 mi West 9.2 mph 16.1 mph N/A   Clear
9:53 AM 48.9 °F - 34.0 °F 56% 30.06 in 10.0 mi WNW 13.8 mph 19.6 mph N/A   Clear
10:53 AM 50.0 °F - 35.1 °F 57% 30.10 in 10.0 mi WNW 16.1 mph 20.7 mph N/A   Clear
11:53 AM 53.1 °F - 37.0 °F 55% 30.11 in 10.0 mi WNW 11.5 mph 18.4 mph N/A   Partly Cloudy
12:53 PM 54.0 °F - 36.0 °F 51% 30.12 in 10.0 mi WNW 15.0 mph 24.2 mph N/A   Clear
1:53 PM 55.9 °F - 36.0 °F 47% 30.10 in 10.0 mi West 9.2 mph 19.6 mph N/A   Clear
2:53 PM 57.9 °F - 36.0 °F 44% 30.09 in 10.0 mi West 8.1 mph - N/A   Clear
3:53 PM 59.0 °F - 35.1 °F 41% 30.08 in 10.0 mi West 10.4 mph - N/A   Clear
4:53 PM 61.0 °F - 35.1 °F 38% 30.08 in 10.0 mi West 10.4 mph 17.3 mph N/A   Clear
5:53 PM 61.0 °F - 33.1 °F 35% 30.09 in 10.0 mi West 10.4 mph - N/A   Clear
6:53 PM 59.0 °F - 33.1 °F 38% 30.11 in 10.0 mi Variable 3.5 mph - N/A   Clear
7:53 PM 48.9 °F - 37.0 °F 64% 30.12 in 10.0 mi Calm Calm - N/A   Clear
8:53 PM 43.0 °F - 36.0 °F 76% 30.14 in 10.0 mi Calm Calm - N/A   Clear
9:53 PM 41.0 °F - 35.1 °F 79% 30.16 in 10.0 mi Calm Calm - N/A   Clear
10:53 PM 39.0 °F - 34.0 °F 82% 30.18 in 10.0 mi Calm Calm - N/A   Clear
11:53 PM 37.9 °F - 34.0 °F 86% 30.18 in 10.0 mi Calm Calm - N/A   Clear